Starlink 32327

operational
NORAD ID: 61641 Int'l Des: 2024-191 Owner: SPXS Country: US Constellation: starlink
LEOCIRCULAR

About Starlink 32327

Description loading...

Live Position

Loading 3D Globe...

Upcoming Passes

Altitude History

Altitude vs Time

uPlot chart will show altitude changes over time

Two-Line Element Set

1 61641U 24191W 25351.46753985 -.00001076 00000-0 -29559-4 0 9998
2 61641 43.0001 258.6767 0001647 275.3815 84.6848 15.27581941 64964
Epoch: Dec 17, 2025 • Age: 25 hours

Current Status

Altitude 493.8 km
Velocity 7.62 km/s
Sub-Earth Point -39.63°S, 77°W
Launch Date Oct 23, 2024
Age 1.1 years
Type internet

Technical Details

Classification Payload
Mass 730.00 kg
Dry Mass 700.00 kg
Total Mass 730.00 kg
Length 0.30 m
Diameter 4.10 m
Span 29.00 m
Shape Box + pan
Manufacturer SPXS
Bus Type Starlink V2M
Phase Status In Orbit
Owner/State SPXS/US

Large Constellations

Loading constellations...